[[{"header":{"parameterUnit":"m.s-1","parameterCategory":1,"la1":30.2991,"la2":30.254,"lo1":-89.0895,"lo2":-89.0444,"dy":0.0017,"dx":0.0017,"nx":28,"ny":28,"refTime":"2023-03-30T15:00:00:Z","depth":0,"parameterNumber":2,"parameterNumberName":"U-component_of_WINDS"},"data":[0,0,0,0,0,0,0,0,0,0,0,0,0,0,0,0,0,0,0,0,0,0,0,0,0,0,0,0,0,0,0,0,0,0,0,0,0,0,0,0,0,0,0,0,0,0,0,0,0,0,0,0,0,0,0,0,0,0,-2.4467,-2.4468,0,-2.455,-2.4551,-2.4552,-2.4574,-2.4574,-2.4573,-2.4573,-2.4657,-2.466,-2.4662,0,0,0,0,0,0,0,0,0,0,0,0,0,-2.4328,-2.4331,-2.4467,-2.4468,-2.4469,-2.455,-2.4551,-2.4552,-2.4574,-2.4574,-2.4573,-2.4573,-2.4656,-2.4659,-2.4663,0,0,0,0,0,0,0,0,0,0,0,0,0,-2.4397,-2.4331,-2.4467,-2.449,-2.4493,-2.4549,-2.4551,-2.4552,-2.4574,-2.4574,-2.4573,-2.4572,-2.4655,-2.4659,-2.4663,-2.4703,0,0,-2.4676,-2.4677,0,0,0,0,0,0,0,0,-2.4393,-2.4402,-2.4485,-2.4488,-2.4492,-2.4551,-2.4533,-2.4603,-2.4575,-2.4543,-2.4573,-2.4572,-2.4622,-2.4629,-2.4646,-2.4707,-2.471,-2.4676,-2.4678,-2.468,-2.4681,0,0,0,0,0,0,0,-2.4389,-2.4399,-2.45,-2.4486,-2.449,-2.4496,-2.4505,-2.4546,-2.4586,-2.4546,-2.4548,-2.4557,-2.4624,-2.4642,-2.4648,-2.4711,-2.4676,-2.4679,-2.4682,-2.4683,-2.4809,-2.481,0,0,0,0,0,0,-2.438,-2.4395,-2.4497,-2.4502,-2.444,-2.4499,-2.4509,-2.4533,-2.4585,-2.4593,-2.4558,-2.4558,-2.4636,-2.4644,-2.4651,-2.4701,-2.468,-2.4684,-2.4686,-2.4808,-2.4809,-2.481,0,0,0,0,0,0,-2.4377,-2.4389,-2.4494,-2.4449,-2.4463,-2.4502,-2.4528,-2.4535,-2.4553,-2.4594,-2.4602,-2.4569,-2.4635,-2.4646,-2.469,-2.4704,-2.4686,-2.4689,-2.4807,-2.4808,-2.481,-2.4801,0,0,0,0,0,0,-2.4373,-2.4387,-2.4403,-2.4449,-2.4465,-2.4531,-2.4529,-2.4537,-2.456,-2.4561,-2.4607,-2.4614,-2.4636,-2.4684,-2.4694,-2.471,-2.4692,-2.4806,-2.4807,-2.4809,-2.48,-2.4802,-2.4803,0,0,0,0,0,-2.4368,-2.4397,-2.4403,-2.4416,-2.4485,-2.4531,-2.4541,-2.4565,-2.4561,-2.4577,-2.4604,-2.4613,-2.4701,-2.4688,-2.47,-2.4717,-2.4805,-2.4807,-2.4809,-2.4799,-2.4802,-2.4803,0,0,0,0,0,0,-2.4351,-2.4403,-2.4411,-2.4456,-2.4489,-2.4535,-2.4556,-2.4566,-2.4601,-2.4601,-2.4629,-2.464,-2.4682,-2.4704,-2.4688,-2.4758,-2.4753,-2.4758,-2.4742,-2.4744,-2.4746,-2.474,-2.4696,0,0,0,0,0,-2.4353,-2.4386,-2.443,-2.4465,-2.4482,-2.4516,-2.4537,-2.4553,-2.4588,-2.4602,-2.4632,-2.4666,-2.4702,-2.4724,-2.4759,-2.4804,-2.4814,-2.4821,-2.4823,-2.4824,-2.4827,-2.4853,-2.4857,-2.4817,-2.4817,-2.4817,0,0,-2.4356,-2.4389,-2.4408,-2.4463,-2.449,-2.4524,-2.4527,-2.4563,-2.4588,-2.4608,-2.4651,-2.4674,-2.4714,-2.4758,-2.478,-2.4778,-2.4841,-2.4827,-2.4827,-2.483,-2.4855,-2.4859,-2.4862,-2.4818,-2.4818,-2.4818,0,0,-2.438,-2.4408,-2.4441,-2.4469,-2.451,-2.4533,-2.4541,-2.4585,-2.4601,-2.4646,-2.4661,-2.4691,-2.4752,-2.478,-2.4802,-2.4837,-2.4846,-2.4847,-2.4856,-2.488,-2.4883,-2.4886,-2.4898,-2.4903,-2.4851,-2.4851,-2.4851,0,-2.4379,-2.4431,-2.4457,-2.4492,-2.4515,-2.4535,-2.4568,-2.4594,-2.4644,-2.466,-2.4658,-2.4735,-2.4763,-2.4814,-2.4823,-2.484,-2.485,-2.4842,-2.4881,-2.4884,-2.4887,-2.4899,-2.4904,-2.485,-2.4851,-2.4851,-2.4851,0,-2.4428,-2.4463,-2.4485,-2.4534,-2.456,-2.4594,-2.4625,-2.4649,-2.4663,-2.4685,-2.473,-2.4765,-2.4807,-2.4821,-2.4834,-2.4874,-2.4872,-2.4875,-2.487,-2.489,-2.4902,-2.4907,-2.485,-2.485,-2.485,-2.485,0,0,-2.4443,-2.4506,-2.4514,-2.4536,-2.4583,-2.4611,-2.4647,-2.4688,-2.4708,-2.4742,-2.4773,-2.4824,-2.4827,-2.4852,-2.4869,-2.489,-2.4916,-2.4891,-2.4892,-2.4894,-2.4962,-2.4959,-2.4964,-2.4923,-2.4924,-2.4925,-2.4958,0,-2.4473,-2.4536,-2.4561,-2.4613,-2.4646,-2.4665,-2.4695,-2.4728,-2.475,-2.4782,-2.4807,-2.4842,-2.4844,-2.4859,-2.4881,-2.4908,-2.493,-2.4906,-2.4951,-2.4952,-2.494,-2.497,-2.4968,-2.4998,-2.4963,-2.4964,-2.4965,0,-2.4516,-2.4551,-2.4606,-2.465,-2.4665,-2.4692,-2.4732,-2.4762,-2.4799,-2.4814,-2.4842,-2.4858,-2.4896,-2.4889,-2.4941,-2.4925,-2.4945,-2.4961,-2.4963,-2.4967,-2.4959,-2.4976,-2.5008,-2.5012,-2.4972,-2.4972,-2.4971,0,-2.4522,-2.4583,-2.4624,-2.4642,-2.4694,-2.4713,-2.4735,-2.4772,-2.4795,-2.4831,-2.4846,-2.4885,-2.4907,-2.4937,-2.4963,-2.4956,-2.5013,-2.5008,-2.5026,-2.5025,-2.5037,-2.5036,-2.5072,-2.505,-2.505,-2.505,-2.505,0,-2.4553,-2.4586,-2.4627,-2.4652,-2.469,-2.4717,-2.4754,-2.4778,-2.481,-2.484,-2.4859,-2.4887,-2.492,-2.4952,-2.4973,-2.5013,-2.5022,-2.5035,-2.504,-2.5033,-2.5032,-2.5047,-2.5045,-2.5051,-2.5051,-2.505,-2.505,0,-2.4566,-2.4595,-2.464,-2.4686,-2.4698,-2.4723,-2.4762,-2.4787,-2.4811,-2.4849,-2.4859,-2.4896,-2.4935,-2.4964,-2.5014,-2.5028,-2.5071,-2.5076,-2.5058,-2.506,-2.5076,-2.5074,-2.5124,-2.5132,-2.5104,-2.5104,-2.5104,0,-2.4583,-2.4609,-2.4657,-2.4679,-2.4701,-2.4735,-2.476,-2.4788,-2.4812,-2.4857,-2.4877,-2.4917,-2.495,-2.5011,-2.5042,-2.5081,-2.5087,-2.5102,-2.5093,-2.5086,-2.5088,-2.5086,-2.5088,-2.5103,-2.5103,-2.5103,-2.5104,0,-2.4612,-2.4625,-2.4659,-2.4698,-2.4726,-2.4759,-2.4791,-2.4808,-2.4842,-2.4868,-2.4908,-2.4934,-2.4986,-2.5025,-2.5067,-2.509,-2.5103,-2.5106,-2.5112,-2.5105,-2.5094,-2.51,-2.5061,-2.5105,-2.5105,-2.5105,-2.5105,-2.5104,-2.4628,-2.4652,-2.4689,-2.4727,-2.4754,-2.4784,-2.481,-2.4836,-2.487,-2.4914,-2.4929,-2.497,-2.5007,-2.5064,-2.5088,-2.512,-2.512,-2.5129,-2.5131,-2.5133,-2.5133,-2.5089,-2.5128,-2.5128,-2.5128,-2.5128,-2.5128,0,-2.4658,-2.4683,-2.4717,-2.4761,-2.4791,-2.48,-2.4836,-2.486,-2.4896,-2.4929,-2.4962,-2.5008,-2.5046,-2.5081,-2.5121,-2.514,-2.5147,-2.515,-2.5149,-2.5154,-2.513,-2.5121,-2.5144,-2.5144,-2.5144,-2.5144,-2.5144,-2.5144,-2.4676,-2.4717,-2.4735,-2.4789,-2.4814,-2.4854,-2.4874,-2.4902,-2.4929,-2.4979,-2.5011,-2.5033,-2.5067,-2.5109,-2.5145,-2.5154,-2.5168,-2.517,-2.518,-2.5157,-2.5155,-2.5153,-2.5145,-2.5172,-2.5172,-2.5201,-2.5201,-2.5201]},{"header":{"parameterUnit":"m.s-1","parameterCategory":1,"la1":30.2991,"la2":30.254,"lo1":-89.0895,"lo2":-89.0444,"dy":0.0017,"dx":0.0017,"nx":28,"ny":28,"refTime":"2023-03-30T15:00:00:Z","depth":0,"parameterNumber":3,"parameterNumberName":"V-component_of_WINDS"},"data":[0,0,0,0,0,0,0,0,0,0,0,0,0,0,0,0,0,0,0,0,0,0,0,0,0,0,0,0,0,0,0,0,0,0,0,0,0,0,0,0,0,0,0,0,0,0,0,0,0,0,0,0,0,0,0,0,0,0,6.0652,6.0651,0,6.059,6.0589,6.0588,6.0537,6.0536,6.0535,6.0535,6.0467,6.0466,6.0465,0,0,0,0,0,0,0,0,0,0,0,0,0,6.0722,6.0721,6.0652,6.0651,6.065,6.059,6.0589,6.0588,6.0537,6.0536,6.0535,6.0535,6.0468,6.0466,6.0465,0,0,0,0,0,0,0,0,0,0,0,0,0,6.0679,6.0721,6.0652,6.0617,6.0614,6.059,6.0589,6.0588,6.0537,6.0536,6.0535,6.0534,6.0468,6.0466,6.0465,6.0469,0,0,6.0459,6.0458,0,0,0,0,0,0,0,0,6.0682,6.0676,6.0623,6.062,6.0615,6.057,6.0589,6.0548,6.0537,6.0566,6.0535,6.0534,6.0502,6.0497,6.0487,6.0466,6.0463,6.0458,6.0457,6.0456,6.0456,0,0,0,0,0,0,0,6.0685,6.0679,6.0627,6.0622,6.0618,6.0604,6.0597,6.0581,6.0539,6.0563,6.0559,6.0553,6.05,6.0489,6.0485,6.0462,6.0458,6.0457,6.0456,6.0455,6.0443,6.0443,0,0,0,0,0,0,6.0693,6.0682,6.0629,6.0625,6.0647,6.0603,6.0595,6.0585,6.0539,6.0531,6.0554,6.0551,6.0493,6.0488,6.0483,6.0486,6.0456,6.0455,6.0454,6.0442,6.0443,6.0444,0,0,0,0,0,0,6.0695,6.0689,6.0631,6.0652,6.0644,6.0603,6.0592,6.0585,6.0574,6.0532,6.0524,6.0551,6.0492,6.0485,6.0473,6.0483,6.0454,6.0452,6.0441,6.0442,6.0443,6.0492,0,0,0,0,0,0,6.0697,6.069,6.0692,6.0653,6.0643,6.0624,6.0593,6.0584,6.0571,6.0567,6.0527,6.052,6.0491,6.0477,6.0472,6.048,6.045,6.044,6.0441,6.0443,6.049,6.0495,6.05,0,0,0,0,0,6.07,6.0707,6.0692,6.0686,6.0645,6.0625,6.0619,6.0587,6.0572,6.0574,6.0547,6.0521,6.0483,6.0476,6.047,6.0478,6.0439,6.0441,6.0443,6.0487,6.0494,6.05,0,0,0,0,0,0,6.0746,6.0701,6.0684,6.0679,6.0657,6.0616,6.0617,6.0595,6.0574,6.0571,6.053,6.0522,6.0515,6.0494,6.0488,6.048,6.0458,6.0458,6.0494,6.05,6.0505,6.051,6.0449,0,0,0,0,0,6.0757,6.0745,6.0706,6.0705,6.0694,6.0658,6.0648,6.0625,6.06,6.0589,6.0561,6.0536,6.0519,6.0508,6.0489,6.0487,6.0478,6.0489,6.0494,6.0498,6.05,6.0498,6.0503,6.045,6.045,6.045,0,0,6.0776,6.075,6.0745,6.0714,6.0693,6.0682,6.065,6.0639,6.063,6.0587,6.0575,6.0554,6.0523,6.0517,6.0512,6.0499,6.0512,6.0501,6.0505,6.0503,6.0501,6.0506,6.051,6.0451,6.0451,6.0451,0,0,6.0807,6.0786,6.0783,6.0765,6.0735,6.0711,6.0711,6.0674,6.0659,6.0646,6.0615,6.0603,6.0573,6.0553,6.0539,6.0564,6.054,6.0559,6.0586,6.0585,6.0589,6.0592,6.0603,6.0607,6.056,6.0561,6.0561,0,6.0835,6.0818,6.0785,6.0776,6.0764,6.0726,6.0724,6.0706,6.0672,6.0663,6.065,6.0614,6.059,6.0579,6.0586,6.0575,6.0574,6.0564,6.0591,6.0594,6.0597,6.0606,6.061,6.0563,6.0563,6.0563,6.0562,0,6.0854,6.0843,6.0844,6.0814,6.0801,6.0796,6.0762,6.0753,6.0732,6.0709,6.0697,6.0668,6.0644,6.0639,6.0617,6.0625,6.0619,6.0599,6.0575,6.0606,6.0613,6.0617,6.0567,6.0566,6.0565,6.0565,0,0,6.0911,6.0865,6.0866,6.0853,6.0818,6.0808,6.0801,6.0779,6.0773,6.075,6.0743,6.072,6.0702,6.0687,6.0662,6.0661,6.0685,6.0642,6.064,6.0652,6.0693,6.0709,6.0714,6.0669,6.0669,6.067,6.0696,0,6.0937,6.0924,6.0895,6.0891,6.088,6.0845,6.0839,6.0817,6.0796,6.0783,6.0759,6.0744,6.0721,6.0711,6.0709,6.0683,6.0693,6.068,6.0662,6.0662,6.0672,6.0718,6.0734,6.076,6.0699,6.07,6.07,0,6.0965,6.0948,6.0943,6.0911,6.0905,6.09,6.0879,6.0867,6.0841,6.0826,6.081,6.0784,6.0774,6.0753,6.0739,6.0732,6.0722,6.0709,6.0709,6.0706,6.0683,6.0717,6.0768,6.0772,6.0704,6.0704,6.0704,0,6.101,6.0984,6.0978,6.0968,6.0929,6.0927,6.0911,6.0885,6.0874,6.0854,6.0847,6.0826,6.0815,6.0799,6.0768,6.0755,6.0759,6.0734,6.0746,6.0747,6.0748,6.0749,6.0799,6.0741,6.0741,6.0741,6.0741,0,6.1042,6.1041,6.0998,6.0995,6.0992,6.0958,6.0957,6.0937,6.0914,6.0906,6.0874,6.0866,6.0826,6.0814,6.0789,6.0783,6.0777,6.0765,6.0758,6.0768,6.077,6.0762,6.0759,6.0742,6.0742,6.0742,6.0741,0,6.1091,6.1062,6.1054,6.1019,6.1011,6.1011,6.098,6.0976,6.0953,6.0943,6.0939,6.0903,6.0887,6.0855,6.083,6.0814,6.0813,6.0801,6.0822,6.0818,6.0832,6.0832,6.088,6.0885,6.0823,6.0824,6.0825,0,6.1114,6.1113,6.1079,6.1072,6.1057,6.1046,6.1035,6.1002,6.0992,6.0964,6.0963,6.0945,6.0929,6.0906,6.0877,6.0858,6.0846,6.0864,6.0843,6.0853,6.0848,6.0849,6.0849,6.0869,6.087,6.0871,6.0871,0,6.1158,6.1145,6.1131,6.1114,6.1103,6.1086,6.1068,6.1064,6.1026,6.1017,6.1002,6.099,6.0965,6.0948,6.0926,6.0908,6.0884,6.0878,6.088,6.089,6.0903,6.0898,6.0836,6.0877,6.0877,6.0876,6.0876,6.0876,6.1196,6.1194,6.117,6.1156,6.114,6.1124,6.1119,6.1096,6.1083,6.1062,6.1043,6.103,6.1005,6.0972,6.0956,6.0945,6.0933,6.0935,6.0936,6.0937,6.0942,6.0905,6.094,6.094,6.094,6.094,6.0939,0,6.124,6.1223,6.1211,6.1188,6.1178,6.1157,6.1137,6.1129,6.1118,6.1098,6.1084,6.1067,6.105,6.1021,6.1002,6.0999,6.0988,6.0995,6.0995,6.0992,6.0953,6.0954,6.1005,6.1005,6.1005,6.1005,6.1005,6.1005,6.1261,6.1257,6.1241,6.1228,6.1211,6.1199,6.1189,6.1175,6.1158,6.1141,6.1128,6.111,6.1086,6.1066,6.105,6.1041,6.1036,6.1048,6.1037,6.1001,6.0995,6.0989,6.0989,6.1047,6.1047,6.1076,6.1077,6.1077]}]]